TimePST,TemperatureF,Dew PointF,Humidity,Sea Level PressureIn,VisibilityMPH,Wind Direction,Wind SpeedMPH,Gust SpeedMPH,PrecipitationIn,Events,Conditions,WindDirDegrees,DateUTC
12:53 AM,17.1,1.9,52,30.29,10.0,NE,4.6,-,N/A,,Partly Cloudy,40,2013-12-04 08:53:00
1:53 AM,17.1,1.9,52,30.29,10.0,NE,3.5,-,N/A,,Partly Cloudy,40,2013-12-04 09:53:00
2:53 AM,15.1,1.9,56,30.30,10.0,Calm,Calm,-,N/A,,Partly Cloudy,0,2013-12-04 10:53:00
3:53 AM,12.9,1.9,62,30.30,10.0,North,3.5,-,N/A,,Partly Cloudy,360,2013-12-04 11:53:00
4:53 AM,12.9,3.0,65,30.30,10.0,NNE,3.5,-,N/A,,Partly Cloudy,20,2013-12-04 12:53:00
5:53 AM,12.9,1.9,62,30.32,10.0,Calm,Calm,-,N/A,,Partly Cloudy,0,2013-12-04 13:53:00
6:53 AM,14.0,3.0,62,30.32,10.0,Calm,Calm,-,N/A,,Partly Cloudy,0,2013-12-04 14:53:00
7:53 AM,12.9,3.9,67,30.34,10.0,Calm,Calm,-,N/A,,Partly Cloudy,0,2013-12-04 15:53:00
8:53 AM,15.1,7.0,70,30.34,10.0,East,3.5,-,N/A,,Partly Cloudy,90,2013-12-04 16:53:00
9:53 AM,19.0,8.1,62,30.35,10.0,Calm,Calm,-,N/A,,Partly Cloudy,0,2013-12-04 17:53:00
10:53 AM,21.0,5.0,50,30.35,10.0,NE,3.5,-,N/A,,Scattered Clouds,50,2013-12-04 18:53:00
11:53 AM,21.0,3.9,48,30.33,10.0,Calm,Calm,-,N/A,,Partly Cloudy,0,2013-12-04 19:53:00
12:53 PM,23.0,3.0,42,30.32,10.0,ENE,4.6,-,N/A,,Partly Cloudy,70,2013-12-04 20:53:00
1:53 PM,24.1,3.0,40,30.30,10.0,WNW,4.6,-,N/A,,Partly Cloudy,300,2013-12-04 21:53:00
2:53 PM,24.1,1.9,38,30.31,10.0,Calm,Calm,-,N/A,,Partly Cloudy,0,2013-12-04 22:53:00
3:53 PM,21.9,1.9,42,30.31,10.0,NNW,3.5,-,N/A,,Partly Cloudy,340,2013-12-04 23:53:00
4:53 PM,19.9,3.9,50,30.32,10.0,Calm,Calm,-,N/A,,Partly Cloudy,0,2013-12-05 00:53:00
5:53 PM,15.1,3.9,61,30.33,10.0,WSW,5.8,-,N/A,,Partly Cloudy,250,2013-12-05 01:53:00
6:53 PM,16.0,3.9,59,30.32,10.0,SW,3.5,-,N/A,,Partly Cloudy,230,2013-12-05 02:53:00
7:53 PM,14.0,3.9,64,30.33,10.0,SSW,4.6,-,N/A,,Partly Cloudy,210,2013-12-05 03:53:00
8:53 PM,15.1,6.1,68,30.33,10.0,SSW,9.2,-,N/A,,Mostly Cloudy,210,2013-12-05 04:53:00
9:53 PM,14.0,7.0,74,30.32,10.0,SW,8.1,-,N/A,,Overcast,220,2013-12-05 05:53:00
10:53 PM,12.9,6.1,74,30.33,10.0,South,5.8,-,N/A,,Mostly Cloudy,170,2013-12-05 06:53:00
11:53 PM,12.9,7.0,77,30.32,10.0,South,5.8,-,N/A,,Overcast,170,2013-12-05 07:53:00